Location: Aulus
(42.7909°N, 1.3399°E)
Time: 20:35:56
(UTC+00:00)

ATLAS 3B R/B - Pass Details

Date: 19 May 2025
Orbit: 935 x 1258 km, 63.8° (Epoch: 21 June)

Event Time Altitude Azimuth Distance (km) Brightness Sun altitude
Exits shadow 21:30:07 22° 109° (ESE) 2,304 4.0 -19.3°
Maximum altitude 21:30:24 22° 106° (ESE) 2,305 4.0 -19.4°
Drops below altitude 10° 21:35:57 10° 59° (ENE) 3,180 5.1 -19.9°
Sets 21:39:27 0° 46° (NE) 4,183 5.9 -20.3°
